Time,TemperatureF,DewpointF,PressureIn,WindDirection,WindDirectionDegrees,WindSpeedMPH,WindSpeedGustMPH,Humidity,HourlyPrecipIn,Conditions,Clouds,dailyrainin,SoftwareType,DateUTC
2013-03-07 00:05:00,29.0,27.5,29.79,South,180,0.0,7.0,94,0.00,,,0.00,Weather View 32 v70,2013-03-07 05:05:00,
2013-03-07 00:10:00,29.0,27.5,29.79,SE,135,1.0,7.0,94,0.00,,,0.00,Weather View 32 v70,2013-03-07 05:10:00,
2013-03-07 00:15:00,29.0,27.5,29.79,East,90,1.0,8.0,94,0.00,,,0.00,Weather View 32 v70,2013-03-07 05:15:00,
2013-03-07 00:20:00,29.0,27.5,29.80,ESE,112,1.0,8.0,94,0.00,,,0.00,Weather View 32 v70,2013-03-07 05:20:00,
2013-03-07 00:25:00,29.0,27.5,29.80,East,90,1.0,8.0,94,0.00,,,0.00,Weather View 32 v70,2013-03-07 05:25:00,
2013-03-07 00:30:00,29.0,27.5,29.80,East,90,0.0,8.0,94,0.00,,,0.00,Weather View 32 v70,2013-03-07 05:30:00,
2013-03-07 00:35:00,29.0,27.5,29.80,ESE,112,3.0,9.0,94,0.00,,,0.00,Weather View 32 v70,2013-03-07 05:35:00,
2013-03-07 00:40:00,29.0,27.5,29.79,East,90,2.0,9.0,94,0.00,,,0.00,Weather View 32 v70,2013-03-07 05:40:00,
2013-03-07 00:45:00,29.0,27.5,29.79,SE,135,1.0,9.0,94,0.00,,,0.00,Weather View 32 v70,2013-03-07 05:45:00,
2013-03-07 00:50:00,29.0,27.5,29.80,ESE,112,1.0,9.0,94,0.00,,,0.00,Weather View 32 v70,2013-03-07 05:50:00,
2013-03-07 00:55:00,29.0,27.5,29.80,SE,135,2.0,9.0,94,0.00,,,0.00,Weather View 32 v70,2013-03-07 05:55:00,
2013-03-07 01:04:00,29.0,27.5,29.80,East,90,1.0,9.0,94,0.00,,,0.00,Weather View 32 v70,2013-03-07 06:04:00,
2013-03-07 01:09:00,29.0,27.5,29.79,ESE,112,1.0,9.0,94,0.00,,,0.00,Weather View 32 v70,2013-03-07 06:09:00,
2013-03-07 01:14:00,29.0,27.5,29.79,SE,135,0.0,9.0,94,0.00,,,0.00,Weather View 32 v70,2013-03-07 06:14:00,
2013-03-07 01:19:00,29.0,27.5,29.79,NW,315,0.0,10.0,94,0.00,,,0.00,Weather View 32 v70,2013-03-07 06:19:00,
2013-03-07 01:25:00,29.0,27.5,29.79,SE,135,1.0,10.0,94,0.00,,,0.00,Weather View 32 v70,2013-03-07 06:25:00,
2013-03-07 01:30:00,29.0,27.5,29.78,NE,45,0.0,10.0,94,0.00,,,0.00,Weather View 32 v70,2013-03-07 06:30:00,
2013-03-07 01:35:00,29.0,27.5,29.78,East,90,6.0,10.0,94,0.00,,,0.00,Weather View 32 v70,2013-03-07 06:35:00,
2013-03-07 01:40:00,29.0,27.5,29.77,East,90,1.0,10.0,94,0.00,,,0.00,Weather View 32 v70,2013-03-07 06:40:00,
2013-03-07 01:45:00,29.0,27.5,29.77,ESE,112,0.0,10.0,94,0.00,,,0.00,Weather View 32 v70,2013-03-07 06:45:00,
2013-03-07 01:50:00,29.0,27.5,29.77,ESE,112,1.0,10.0,94,0.00,,,0.00,Weather View 32 v70,2013-03-07 06:50:00,
2013-03-07 01:55:00,28.0,26.5,29.77,NW,315,1.0,10.0,94,0.00,,,0.00,Weather View 32 v70,2013-03-07 06:55:00,
2013-03-07 01:59:00,28.0,26.5,29.76,South,180,2.0,10.0,94,0.00,,,0.00,Weather View 32 v70,2013-03-07 06:59:00,
2013-03-07 02:04:00,28.0,26.5,29.76,SE,135,2.0,10.0,94,0.00,,,0.00,Weather View 32 v70,2013-03-07 07:04:00,
2013-03-07 02:09:00,28.0,26.5,29.76,East,90,2.0,10.0,94,0.00,,,0.00,Weather View 32 v70,2013-03-07 07:09:00,
2013-03-07 02:15:00,28.0,26.5,29.76,NE,45,1.0,10.0,94,0.00,,,0.00,Weather View 32 v70,2013-03-07 07:15:00,
2013-03-07 02:20:00,28.0,26.5,29.76,East,90,2.0,9.0,94,0.00,,,0.00,Weather View 32 v70,2013-03-07 07:20:00,
2013-03-07 02:25:00,28.0,26.5,29.76,ESE,112,1.0,9.0,94,0.00,,,0.00,Weather View 32 v70,2013-03-07 07:25:00,
2013-03-07 02:30:00,28.0,26.5,29.76,NW,315,2.0,9.0,94,0.00,,,0.00,Weather View 32 v70,2013-03-07 07:30:00,
2013-03-07 02:35:00,28.0,26.5,29.76,SE,135,0.0,9.0,94,0.00,,,0.00,Weather View 32 v70,2013-03-07 07:35:00,
2013-03-07 02:40:00,28.0,26.5,29.75,SE,135,1.0,9.0,94,0.00,,,0.00,Weather View 32 v70,2013-03-07 07:40:00,
2013-03-07 02:45:00,28.0,26.5,29.75,NE,45,4.0,9.0,94,0.00,,,0.00,Weather View 32 v70,2013-03-07 07:45:00,
2013-03-07 02:50:00,28.0,26.5,29.75,SE,135,2.0,9.0,94,0.00,,,0.00,Weather View 32 v70,2013-03-07 07:50:00,
2013-03-07 02:55:00,28.0,26.5,29.75,ESE,112,2.0,9.0,94,0.00,,,0.00,Weather View 32 v70,2013-03-07 07:55:00,
2013-03-07 02:59:00,28.0,26.5,29.75,SE,135,2.0,8.0,94,0.00,,,0.00,Weather View 32 v70,2013-03-07 07:59:00,
2013-03-07 03:05:00,28.0,26.5,29.75,ENE,67,1.0,8.0,94,0.00,,,0.00,Weather View 32 v70,2013-03-07 08:05:00,
2013-03-07 03:15:00,28.0,26.5,29.75,NE,45,6.0,9.0,94,0.00,,,0.00,Weather View 32 v70,2013-03-07 08:15:00,
2013-03-07 03:20:00,28.0,26.5,29.75,SE,135,0.0,9.0,94,0.00,,,0.00,Weather View 32 v70,2013-03-07 08:20:00,
2013-03-07 03:30:00,28.0,26.5,29.75,East,90,4.0,9.0,94,0.00,,,0.00,Weather View 32 v70,2013-03-07 08:30:00,
2013-03-07 03:35:00,28.0,26.5,29.75,East,90,1.0,9.0,94,0.00,,,0.00,Weather View 32 v70,2013-03-07 08:35:00,
2013-03-07 03:40:00,28.0,26.5,29.75,ESE,112,0.0,9.0,94,0.00,,,0.00,Weather View 32 v70,2013-03-07 08:40:00,
2013-03-07 03:50:00,28.0,26.5,29.75,SE,135,1.0,10.0,94,0.00,,,0.00,Weather View 32 v70,2013-03-07 08:50:00,
2013-03-07 03:56:00,28.0,26.5,29.75,SE,135,3.0,12.0,94,0.00,,,0.00,Weather View 32 v70,2013-03-07 08:56:00,
2013-03-07 04:09:00,28.0,26.5,29.75,East,90,3.0,12.0,94,0.00,,,0.00,Weather View 32 v70,2013-03-07 09:09:00,
2013-03-07 04:15:00,28.0,26.5,29.75,East,90,5.0,12.0,94,0.00,,,0.00,Weather View 32 v70,2013-03-07 09:15:00,
2013-03-07 04:20:00,28.0,26.5,29.75,South,180,4.0,12.0,94,0.00,,,0.00,Weather View 32 v70,2013-03-07 09:20:00,
2013-03-07 04:25:00,28.0,26.5,29.75,SE,135,2.0,12.0,94,0.00,,,0.00,Weather View 32 v70,2013-03-07 09:25:00,
2013-03-07 04:35:00,28.0,26.5,29.75,ESE,112,3.0,12.0,94,0.00,,,0.00,Weather View 32 v70,2013-03-07 09:35:00,
2013-03-07 04:40:00,28.0,26.5,29.76,South,180,2.0,12.0,94,0.00,,,0.00,Weather View 32 v70,2013-03-07 09:40:00,
2013-03-07 04:50:00,28.0,26.5,29.76,ESE,112,4.0,12.0,94,0.00,,,0.00,Weather View 32 v70,2013-03-07 09:50:00,
2013-03-07 04:55:00,28.0,26.5,29.76,ESE,112,5.0,12.0,94,0.00,,,0.00,Weather View 32 v70,2013-03-07 09:55:00,
2013-03-07 05:00:00,28.0,26.5,29.75,East,90,1.0,10.0,94,0.00,,,0.00,Weather View 32 v70,2013-03-07 10:00:00,
2013-03-07 05:05:00,28.0,26.5,29.75,East,90,1.0,10.0,94,0.00,,,0.00,Weather View 32 v70,2013-03-07 10:05:00,
2013-03-07 05:15:00,28.0,26.5,29.75,SE,135,5.0,10.0,94,0.00,,,0.00,Weather View 32 v70,2013-03-07 10:15:00,
2013-03-07 05:24:00,27.0,25.5,29.74,East,90,1.0,10.0,94,0.00,,,0.00,Weather View 32 v70,2013-03-07 10:24:00,
2013-03-07 05:30:00,27.0,25.5,29.74,SE,135,3.0,10.0,94,0.00,,,0.00,Weather View 32 v70,2013-03-07 10:30:00,
2013-03-07 05:39:00,27.0,25.5,29.74,East,90,6.0,10.0,94,0.00,,,0.00,Weather View 32 v70,2013-03-07 10:39:00,
2013-03-07 05:44:00,27.0,25.5,29.74,ESE,112,0.0,10.0,94,0.00,,,0.00,Weather View 32 v70,2013-03-07 10:44:00,
2013-03-07 05:49:00,27.0,25.5,29.75,South,180,0.0,10.0,94,0.00,,,0.00,Weather View 32 v70,2013-03-07 10:49:00,
2013-03-07 05:54:00,27.0,25.5,29.75,West,270,0.0,10.0,94,0.00,,,0.00,Weather View 32 v70,2013-03-07 10:54:00,
2013-03-07 05:59:00,27.0,25.5,29.75,ESE,112,5.0,10.0,94,0.00,,,0.00,Weather View 32 v70,2013-03-07 10:59:00,
2013-03-07 06:04:00,27.0,25.5,29.75,SE,135,3.0,10.0,94,0.00,,,0.00,Weather View 32 v70,2013-03-07 11:04:00,
2013-03-07 06:09:00,27.0,25.5,29.75,NE,45,1.0,10.0,94,0.00,,,0.00,Weather View 32 v70,2013-03-07 11:09:00,
2013-03-07 06:14:00,27.0,25.5,29.75,NE,45,3.0,10.0,94,0.00,,,0.00,Weather View 32 v70,2013-03-07 11:14:00,
2013-03-07 06:19:00,27.0,25.5,29.75,NE,45,2.0,10.0,94,0.00,,,0.00,Weather View 32 v70,2013-03-07 11:19:00,
2013-03-07 06:24:00,27.0,25.5,29.75,NE,45,1.0,10.0,94,0.00,,,0.00,Weather View 32 v70,2013-03-07 11:24:00,
2013-03-07 06:30:00,27.0,25.5,29.76,ESE,112,6.0,10.0,94,0.00,,,0.00,Weather View 32 v70,2013-03-07 11:30:00,
2013-03-07 06:39:00,27.0,25.5,29.76,South,180,5.0,10.0,94,0.00,,,0.00,Weather View 32 v70,2013-03-07 11:39:00,
2013-03-07 06:44:00,27.0,25.5,29.76,East,90,4.0,10.0,94,0.00,,,0.00,Weather View 32 v70,2013-03-07 11:44:00,
2013-03-07 06:50:00,27.0,25.5,29.76,East,90,4.0,10.0,94,0.00,,,0.00,Weather View 32 v70,2013-03-07 11:50:00,
2013-03-07 06:58:00,27.0,25.5,29.76,SE,135,4.0,10.0,94,0.00,,,0.00,Weather View 32 v70,2013-03-07 11:58:00,
2013-03-07 07:04:00,28.0,26.5,29.76,SSW,202,0.0,10.0,94,0.00,,,0.00,Weather View 32 v70,2013-03-07 12:04:00,
2013-03-07 07:10:00,28.0,26.5,29.75,NE,45,6.0,10.0,94,0.00,,,0.00,Weather View 32 v70,2013-03-07 12:10:00,
2013-03-07 07:19:00,28.0,26.5,29.75,East,90,3.0,10.0,94,0.00,,,0.00,Weather View 32 v70,2013-03-07 12:19:00,
2013-03-07 07:24:00,28.0,26.5,29.75,SE,135,3.0,13.0,94,0.00,,,0.00,Weather View 32 v70,2013-03-07 12:24:00,
2013-03-07 07:29:00,28.0,26.5,29.75,NE,45,0.0,13.0,94,0.00,,,0.00,Weather View 32 v70,2013-03-07 12:29:00,
2013-03-07 07:34:00,28.0,26.5,29.75,East,90,2.0,13.0,94,0.00,,,0.00,Weather View 32 v70,2013-03-07 12:34:00,
2013-03-07 07:39:00,28.0,26.5,29.76,ESE,112,1.0,13.0,94,0.00,,,0.00,Weather View 32 v70,2013-03-07 12:39:00,
2013-03-07 07:44:00,28.0,26.5,29.76,East,90,3.0,13.0,94,0.00,,,0.00,Weather View 32 v70,2013-03-07 12:44:00,
2013-03-07 07:49:00,28.0,26.5,29.76,SE,135,2.0,13.0,94,0.00,,,0.00,Weather View 32 v70,2013-03-07 12:49:00,
2013-03-07 07:54:00,28.0,26.5,29.76,SE,135,2.0,13.0,94,0.00,,,0.00,Weather View 32 v70,2013-03-07 12:54:00,
2013-03-07 07:59:00,28.0,26.5,29.76,ESE,112,4.0,13.0,94,0.00,,,0.00,Weather View 32 v70,2013-03-07 12:59:00,
2013-03-07 08:04:00,28.0,26.5,29.76,SE,135,6.0,13.0,94,0.00,,,0.00,Weather View 32 v70,2013-03-07 13:04:00,
2013-03-07 08:09:00,29.0,27.5,29.76,ESE,112,3.0,13.0,94,0.00,,,0.00,Weather View 32 v70,2013-03-07 13:09:00,
2013-03-07 08:14:00,29.0,27.5,29.76,SE,135,3.0,13.0,94,0.00,,,0.00,Weather View 32 v70,2013-03-07 13:14:00,
2013-03-07 08:19:00,29.0,27.5,29.76,East,90,5.0,13.0,94,0.00,,,0.00,Weather View 32 v70,2013-03-07 13:19:00,
2013-03-07 08:24:00,29.0,27.5,29.76,SE,135,4.0,10.0,94,0.00,,,0.00,Weather View 32 v70,2013-03-07 13:24:00,
2013-03-07 08:29:00,29.0,27.5,29.76,East,90,1.0,10.0,94,0.00,,,0.00,Weather View 32 v70,2013-03-07 13:29:00,
2013-03-07 08:34:00,29.0,27.5,29.76,SE,135,2.0,10.0,94,0.00,,,0.00,Weather View 32 v70,2013-03-07 13:34:00,
2013-03-07 08:39:00,29.0,27.5,29.77,East,90,4.0,10.0,94,0.00,,,0.00,Weather View 32 v70,2013-03-07 13:39:00,
2013-03-07 08:44:00,29.0,27.5,29.77,East,90,1.0,10.0,94,0.00,,,0.00,Weather View 32 v70,2013-03-07 13:44:00,
2013-03-07 08:49:00,30.0,28.7,29.76,North,360,1.0,10.0,95,0.00,,,0.00,Weather View 32 v70,2013-03-07 13:49:00,
2013-03-07 08:54:00,29.0,27.5,29.76,SE,135,9.0,10.0,94,0.00,,,0.00,Weather View 32 v70,2013-03-07 13:54:00,
2013-03-07 08:59:00,30.0,28.7,29.75,SE,135,5.0,13.0,95,0.00,,,0.00,Weather View 32 v70,2013-03-07 13:59:00,
2013-03-07 09:04:00,30.0,28.7,29.75,East,90,3.0,13.0,95,0.00,,,0.00,Weather View 32 v70,2013-03-07 14:04:00,
2013-03-07 09:09:00,30.0,28.7,29.75,East,90,4.0,13.0,95,0.00,,,0.00,Weather View 32 v70,2013-03-07 14:09:00,
2013-03-07 09:14:00,30.0,28.7,29.75,SE,135,3.0,13.0,95,0.00,,,0.00,Weather View 32 v70,2013-03-07 14:14:00,
2013-03-07 09:24:00,30.0,28.7,29.75,SSE,157,2.0,13.0,95,0.00,,,0.00,Weather View 32 v70,2013-03-07 14:24:00,
2013-03-07 09:29:00,30.0,28.7,29.75,ESE,112,1.0,13.0,95,0.00,,,0.00,Weather View 32 v70,2013-03-07 14:29:00,
2013-03-07 09:34:00,30.0,28.7,29.75,ENE,67,6.0,13.0,95,0.00,,,0.00,Weather View 32 v70,2013-03-07 14:34:00,
2013-03-07 09:39:00,30.0,28.7,29.75,East,90,3.0,13.0,95,0.00,,,0.00,Weather View 32 v70,2013-03-07 14:39:00,
2013-03-07 09:44:00,30.0,28.7,29.75,ESE,112,2.0,13.0,95,0.00,,,0.00,Weather View 32 v70,2013-03-07 14:44:00,
2013-03-07 09:49:00,30.0,28.7,29.75,East,90,6.0,13.0,95,0.00,,,0.00,Weather View 32 v70,2013-03-07 14:49:00,
2013-03-07 09:54:00,30.0,28.7,29.75,North,360,2.0,13.0,95,0.00,,,0.00,Weather View 32 v70,2013-03-07 14:54:00,
2013-03-07 10:14:00,31.0,29.7,29.74,East,90,2.0,12.0,95,0.00,,,0.00,Weather View 32 v70,2013-03-07 15:14:00,
2013-03-07 10:20:00,31.0,29.7,29.74,SE,135,4.0,12.0,95,0.00,,,0.00,Weather View 32 v70,2013-03-07 15:20:00,
2013-03-07 10:29:00,31.0,29.7,29.74,South,180,4.0,12.0,95,0.00,,,0.00,Weather View 32 v70,2013-03-07 15:29:00,
2013-03-07 10:34:00,31.0,29.7,29.74,SE,135,2.0,12.0,95,0.00,,,0.00,Weather View 32 v70,2013-03-07 15:34:00,
2013-03-07 10:49:00,31.0,29.7,29.74,NE,45,2.0,12.0,95,0.00,,,0.00,Weather View 32 v70,2013-03-07 15:49:00,
2013-03-07 11:25:00,32.0,30.7,29.75,East,90,1.0,10.0,95,0.00,,,0.00,Weather View 32 v70,2013-03-07 16:25:00,
2013-03-07 11:34:00,32.0,30.7,29.75,East,90,5.0,9.0,95,0.00,,,0.00,Weather View 32 v70,2013-03-07 16:34:00,
2013-03-07 11:45:00,31.0,29.7,29.75,NE,45,3.0,9.0,95,0.00,,,0.00,Weather View 32 v70,2013-03-07 16:45:00,
2013-03-07 11:54:00,31.0,29.7,29.75,SE,135,7.0,9.0,95,0.00,,,0.00,Weather View 32 v70,2013-03-07 16:54:00,
2013-03-07 11:59:00,32.0,30.7,29.75,West,270,1.0,9.0,95,0.00,,,0.00,Weather View 32 v70,2013-03-07 16:59:00,
2013-03-07 12:04:00,31.0,29.7,29.75,ESE,112,7.0,9.0,95,0.00,,,0.00,Weather View 32 v70,2013-03-07 17:04:00,
2013-03-07 12:09:00,32.0,30.7,29.74,East,90,3.0,9.0,95,0.00,,,0.00,Weather View 32 v70,2013-03-07 17:09:00,
2013-03-07 12:14:00,32.0,30.7,29.74,East,90,2.0,9.0,95,0.00,,,0.00,Weather View 32 v70,2013-03-07 17:14:00,
2013-03-07 12:19:00,32.0,30.7,29.74,East,90,2.0,9.0,95,0.00,,,0.00,Weather View 32 v70,2013-03-07 17:19:00,
2013-03-07 12:30:00,32.0,30.7,29.73,East,90,2.0,9.0,95,0.00,,,0.00,Weather View 32 v70,2013-03-07 17:30:00,
2013-03-07 12:39:00,32.0,30.7,29.73,East,90,3.0,9.0,95,0.00,,,0.00,Weather View 32 v70,2013-03-07 17:39:00,
2013-03-07 12:50:00,32.0,30.7,29.73,NE,45,0.0,9.0,95,0.00,,,0.00,Weather View 32 v70,2013-03-07 17:50:00,
2013-03-07 12:59:00,32.0,30.7,29.73,ENE,67,2.0,9.0,95,0.00,,,0.00,Weather View 32 v70,2013-03-07 17:59:00,
2013-03-07 13:05:00,32.0,30.7,29.73,NW,315,5.0,9.0,95,0.00,,,0.00,Weather View 32 v70,2013-03-07 18:05:00,
2013-03-07 13:14:00,32.0,30.7,29.73,East,90,6.0,10.0,95,0.00,,,0.00,Weather View 32 v70,2013-03-07 18:14:00,
2013-03-07 13:19:00,32.0,30.7,29.73,NE,45,1.0,10.0,95,0.01,,,0.01,Weather View 32 v70,2013-03-07 18:19:00,
2013-03-07 13:24:00,32.0,30.7,29.73,ESE,112,3.0,10.0,95,0.00,,,0.01,Weather View 32 v70,2013-03-07 18:24:00,
2013-03-07 13:29:00,32.0,30.7,29.73,South,180,0.0,10.0,95,0.02,,,0.02,Weather View 32 v70,2013-03-07 18:29:00,
2013-03-07 13:34:00,32.0,30.7,29.73,East,90,0.0,10.0,95,0.00,,,0.02,Weather View 32 v70,2013-03-07 18:34:00,
2013-03-07 13:39:00,32.0,30.7,29.73,East,90,5.0,10.0,95,0.03,,,0.03,Weather View 32 v70,2013-03-07 18:39:00,
2013-03-07 13:44:00,32.0,30.7,29.73,East,90,2.0,10.0,95,0.00,,,0.04,Weather View 32 v70,2013-03-07 18:44:00,
2013-03-07 13:49:00,32.0,30.7,29.73,East,90,2.0,10.0,95,0.04,,,0.04,Weather View 32 v70,2013-03-07 18:49:00,
2013-03-07 13:54:00,32.0,30.7,29.73,ESE,112,4.0,10.0,95,0.05,,,0.05,Weather View 32 v70,2013-03-07 18:54:00,
2013-03-07 13:59:00,32.0,30.7,29.73,East,90,1.0,10.0,95,0.05,,,0.05,Weather View 32 v70,2013-03-07 18:59:00,
2013-03-07 14:04:00,32.0,30.7,29.73,East,90,2.0,10.0,95,0.05,,,0.05,Weather View 32 v70,2013-03-07 19:04:00,
2013-03-07 14:09:00,32.0,30.7,29.73,East,90,6.0,10.0,95,0.06,,,0.06,Weather View 32 v70,2013-03-07 19:09:00,
2013-03-07 14:14:00,32.0,30.7,29.73,East,90,7.0,10.0,95,0.06,,,0.06,Weather View 32 v70,2013-03-07 19:14:00,
2013-03-07 14:19:00,32.0,30.7,29.73,NE,45,1.0,10.0,95,0.05,,,0.06,Weather View 32 v70,2013-03-07 19:19:00,
2013-03-07 14:24:00,32.0,30.7,29.73,East,90,3.0,10.0,95,0.06,,,0.07,Weather View 32 v70,2013-03-07 19:24:00,
2013-03-07 14:30:00,32.0,30.7,29.73,East,90,4.0,10.0,95,0.05,,,0.07,Weather View 32 v70,2013-03-07 19:30:00,
2013-03-07 14:35:00,32.0,30.7,29.73,East,90,3.0,10.0,95,0.05,,,0.07,Weather View 32 v70,2013-03-07 19:35:00,
2013-03-07 14:44:00,32.0,30.7,29.73,NE,45,0.0,12.0,95,0.04,,,0.08,Weather View 32 v70,2013-03-07 19:44:00,
2013-03-07 14:49:00,32.0,30.7,29.73,South,180,3.0,12.0,95,0.04,,,0.08,Weather View 32 v70,2013-03-07 19:49:00,
2013-03-07 14:54:00,32.0,30.7,29.73,East,90,3.0,12.0,95,0.04,,,0.09,Weather View 32 v70,2013-03-07 19:54:00,
2013-03-07 14:59:00,32.0,30.7,29.73,East,90,1.0,12.0,95,0.04,,,0.09,Weather View 32 v70,2013-03-07 19:59:00,
2013-03-07 15:04:00,32.0,30.7,29.73,ESE,112,0.0,12.0,95,0.04,,,0.09,Weather View 32 v70,2013-03-07 20:04:00,
2013-03-07 15:09:00,32.0,30.7,29.73,ESE,112,0.0,12.0,95,0.03,,,0.09,Weather View 32 v70,2013-03-07 20:09:00,
2013-03-07 15:14:00,31.0,29.7,29.73,SE,135,1.0,12.0,95,0.04,,,0.10,Weather View 32 v70,2013-03-07 20:14:00,
2013-03-07 15:19:00,31.0,29.7,29.74,NE,45,0.0,12.0,95,0.04,,,0.10,Weather View 32 v70,2013-03-07 20:19:00,
2013-03-07 15:24:00,31.0,29.7,29.74,East,90,2.0,12.0,95,0.03,,,0.10,Weather View 32 v70,2013-03-07 20:24:00,
2013-03-07 15:29:00,31.0,29.7,29.73,East,90,1.0,12.0,95,0.03,,,0.10,Weather View 32 v70,2013-03-07 20:29:00,
2013-03-07 15:34:00,31.0,29.7,29.73,SE,135,3.0,12.0,95,0.03,,,0.10,Weather View 32 v70,2013-03-07 20:34:00,
2013-03-07 15:39:00,31.0,29.7,29.73,East,90,0.0,9.0,95,0.02,,,0.10,Weather View 32 v70,2013-03-07 20:39:00,
2013-03-07 15:44:00,31.0,29.7,29.73,NW,315,1.0,9.0,95,0.03,,,0.11,Weather View 32 v70,2013-03-07 20:44:00,
2013-03-07 15:49:00,31.0,29.7,29.73,NE,45,6.0,9.0,95,0.03,,,0.11,Weather View 32 v70,2013-03-07 20:49:00,
2013-03-07 15:55:00,31.0,29.7,29.73,East,90,2.0,9.0,95,0.02,,,0.11,Weather View 32 v70,2013-03-07 20:55:00,
2013-03-07 16:03:00,31.0,29.7,29.73,NE,45,0.0,9.0,95,0.02,,,0.11,Weather View 32 v70,2013-03-07 21:03:00,
2013-03-07 16:09:00,30.0,28.7,29.74,NE,45,2.0,12.0,95,0.02,,,0.11,Weather View 32 v70,2013-03-07 21:09:00,
2013-03-07 16:14:00,30.0,28.7,29.74,North,360,0.0,12.0,95,0.01,,,0.11,Weather View 32 v70,2013-03-07 21:14:00,
2013-03-07 16:19:00,30.0,28.7,29.74,ESE,112,1.0,12.0,95,0.01,,,0.11,Weather View 32 v70,2013-03-07 21:19:00,
2013-03-07 16:24:00,30.0,28.7,29.74,SE,135,4.0,12.0,95,0.01,,,0.11,Weather View 32 v70,2013-03-07 21:24:00,
2013-03-07 16:29:00,30.0,28.7,29.74,NE,45,3.0,12.0,95,0.01,,,0.11,Weather View 32 v70,2013-03-07 21:29:00,
2013-03-07 16:34:00,30.0,28.7,29.74,East,90,2.0,12.0,95,0.01,,,0.11,Weather View 32 v70,2013-03-07 21:34:00,
2013-03-07 16:39:00,30.0,28.7,29.74,NE,45,1.0,12.0,95,0.01,,,0.11,Weather View 32 v70,2013-03-07 21:39:00,
2013-03-07 16:44:00,30.0,28.7,29.74,NE,45,1.0,12.0,95,0.00,,,0.11,Weather View 32 v70,2013-03-07 21:44:00,
2013-03-07 16:50:00,30.0,28.7,29.74,NE,45,0.0,12.0,95,0.00,,,0.11,Weather View 32 v70,2013-03-07 21:50:00,
2013-03-07 17:00:00,30.0,28.7,29.75,NE,45,1.0,12.0,95,0.00,,,0.11,Weather View 32 v70,2013-03-07 22:00:00,
2013-03-07 17:05:00,29.0,27.5,29.75,NE,45,0.0,7.0,94,0.00,,,0.11,Weather View 32 v70,2013-03-07 22:05:00,
2013-03-07 17:14:00,29.0,27.5,29.74,NE,45,1.0,7.0,94,0.01,,,0.12,Weather View 32 v70,2013-03-07 22:14:00,
2013-03-07 17:19:00,30.0,28.7,29.75,NE,45,0.0,7.0,95,0.01,,,0.12,Weather View 32 v70,2013-03-07 22:19:00,
2013-03-07 17:29:00,29.0,27.5,29.75,NE,45,2.0,7.0,94,0.01,,,0.12,Weather View 32 v70,2013-03-07 22:29:00,
2013-03-07 17:34:00,29.0,27.5,29.75,NE,45,2.0,7.0,94,0.01,,,0.12,Weather View 32 v70,2013-03-07 22:34:00,
2013-03-07 17:39:00,29.0,27.5,29.75,NE,45,1.0,7.0,94,0.01,,,0.12,Weather View 32 v70,2013-03-07 22:39:00,
2013-03-07 17:44:00,29.0,27.5,29.75,NE,45,2.0,7.0,94,0.01,,,0.12,Weather View 32 v70,2013-03-07 22:44:00,
2013-03-07 17:49:00,29.0,27.5,29.75,NE,45,2.0,7.0,94,0.01,,,0.12,Weather View 32 v70,2013-03-07 22:49:00,
2013-03-07 17:54:00,29.0,27.5,29.75,NE,45,1.0,7.0,94,0.01,,,0.12,Weather View 32 v70,2013-03-07 22:54:00,
2013-03-07 17:59:00,29.0,27.5,29.75,NE,45,0.0,6.0,94,0.01,,,0.12,Weather View 32 v70,2013-03-07 22:59:00,
2013-03-07 18:05:00,29.0,27.5,29.75,NE,45,1.0,6.0,94,0.01,,,0.12,Weather View 32 v70,2013-03-07 23:05:00,
2013-03-07 18:15:00,28.0,26.5,29.75,NE,45,1.0,6.0,94,0.00,,,0.12,Weather View 32 v70,2013-03-07 23:15:00,
2013-03-07 18:54:00,28.0,26.5,29.74,NE,45,1.0,6.0,94,0.00,,,0.12,Weather View 32 v70,2013-03-07 23:54:00,
2013-03-07 18:59:00,29.0,27.5,29.74,NE,45,0.0,6.0,94,0.00,,,0.12,Weather View 32 v70,2013-03-07 23:59:00,
2013-03-07 19:05:00,28.0,26.5,29.74,NE,45,1.0,6.0,94,0.00,,,0.12,Weather View 32 v70,2013-03-08 00:05:00,
2013-03-07 19:10:00,29.0,27.5,29.74,NE,45,1.0,9.0,94,0.00,,,0.12,Weather View 32 v70,2013-03-08 00:10:00,
2013-03-07 19:15:00,28.0,26.5,29.74,NE,45,1.0,9.0,94,0.00,,,0.12,Weather View 32 v70,2013-03-08 00:15:00,
2013-03-07 19:20:00,29.0,27.5,29.74,NE,45,0.0,9.0,94,0.00,,,0.12,Weather View 32 v70,2013-03-08 00:20:00,
2013-03-07 19:25:00,28.0,26.5,29.74,NE,45,1.0,9.0,94,0.00,,,0.12,Weather View 32 v70,2013-03-08 00:25:00,
2013-03-07 19:34:00,28.0,26.5,29.74,NE,45,3.0,9.0,94,0.00,,,0.12,Weather View 32 v70,2013-03-08 00:34:00,
2013-03-07 19:39:00,29.0,27.5,29.74,NE,45,2.0,9.0,94,0.00,,,0.12,Weather View 32 v70,2013-03-08 00:39:00,
2013-03-07 19:44:00,28.0,26.5,29.74,NE,45,3.0,9.0,94,0.00,,,0.12,Weather View 32 v70,2013-03-08 00:44:00,
2013-03-07 19:49:00,29.0,27.5,29.74,NE,45,3.0,9.0,94,0.00,,,0.12,Weather View 32 v70,2013-03-08 00:49:00,
2013-03-07 19:54:00,28.0,26.5,29.74,NE,45,1.0,9.0,94,0.00,,,0.12,Weather View 32 v70,2013-03-08 00:54:00,
2013-03-07 19:59:00,28.0,26.5,29.74,NE,45,0.0,9.0,94,0.00,,,0.12,Weather View 32 v70,2013-03-08 00:59:00,
2013-03-07 20:05:00,28.0,26.5,29.74,NE,45,0.0,9.0,94,0.00,,,0.12,Weather View 32 v70,2013-03-08 01:05:00,
2013-03-07 20:15:00,28.0,26.5,29.74,NE,45,0.0,7.0,94,0.00,,,0.12,Weather View 32 v70,2013-03-08 01:15:00,
2013-03-07 20:20:00,28.0,26.5,29.74,NE,45,1.0,8.0,94,0.00,,,0.12,Weather View 32 v70,2013-03-08 01:20:00,
2013-03-07 20:25:00,28.0,26.5,29.74,NE,45,0.0,8.0,94,0.00,,,0.12,Weather View 32 v70,2013-03-08 01:25:00,
2013-03-07 20:30:00,28.0,26.5,29.74,NE,45,1.0,8.0,94,0.00,,,0.12,Weather View 32 v70,2013-03-08 01:30:00,
2013-03-07 20:35:00,28.0,26.5,29.74,NE,45,1.0,8.0,94,0.00,,,0.12,Weather View 32 v70,2013-03-08 01:35:00,
2013-03-07 20:44:00,28.0,26.5,29.74,NE,45,1.0,8.0,94,0.00,,,0.12,Weather View 32 v70,2013-03-08 01:44:00,
2013-03-07 20:49:00,28.0,26.5,29.74,NE,45,5.0,8.0,94,0.00,,,0.12,Weather View 32 v70,2013-03-08 01:49:00,
2013-03-07 20:54:00,28.0,26.5,29.74,NE,45,1.0,8.0,94,0.00,,,0.12,Weather View 32 v70,2013-03-08 01:54:00,
2013-03-07 20:59:00,28.0,26.5,29.73,NE,45,1.0,8.0,94,0.00,,,0.12,Weather View 32 v70,2013-03-08 01:59:00,
2013-03-07 21:04:00,28.0,26.5,29.73,NE,45,1.0,8.0,94,0.00,,,0.12,Weather View 32 v70,2013-03-08 02:04:00,
2013-03-07 21:10:00,28.0,26.5,29.73,NE,45,1.0,8.0,94,0.00,,,0.12,Weather View 32 v70,2013-03-08 02:10:00,
2013-03-07 21:20:00,28.0,26.5,29.73,NE,45,0.0,7.0,94,0.00,,,0.12,Weather View 32 v70,2013-03-08 02:20:00,
2013-03-07 21:25:00,28.0,26.5,29.73,NE,45,0.0,7.0,94,0.00,,,0.12,Weather View 32 v70,2013-03-08 02:25:00,
2013-03-07 21:30:00,28.0,26.5,29.73,NE,45,0.0,6.0,94,0.00,,,0.12,Weather View 32 v70,2013-03-08 02:30:00,
2013-03-07 21:35:00,28.0,26.5,29.73,NE,45,1.0,6.0,94,0.00,,,0.12,Weather View 32 v70,2013-03-08 02:35:00,
2013-03-07 21:44:00,28.0,26.5,29.72,NE,45,1.0,6.0,94,0.00,,,0.12,Weather View 32 v70,2013-03-08 02:44:00,
2013-03-07 21:49:00,28.0,26.5,29.72,NE,45,1.0,6.0,94,0.00,,,0.12,Weather View 32 v70,2013-03-08 02:49:00,
2013-03-07 21:54:00,28.0,26.5,29.72,NE,45,0.0,6.0,94,0.00,,,0.12,Weather View 32 v70,2013-03-08 02:54:00,
2013-03-07 21:59:00,28.0,26.5,29.72,NE,45,1.0,6.0,94,0.00,,,0.12,Weather View 32 v70,2013-03-08 02:59:00,
2013-03-07 22:04:00,28.0,26.5,29.72,NE,45,0.0,7.0,94,0.00,,,0.12,Weather View 32 v70,2013-03-08 03:04:00,
2013-03-07 22:10:00,28.0,26.5,29.71,NE,45,1.0,7.0,94,0.00,,,0.12,Weather View 32 v70,2013-03-08 03:10:00,
2013-03-07 22:15:00,28.0,26.5,29.71,NE,45,0.0,7.0,94,0.00,,,0.12,Weather View 32 v70,2013-03-08 03:15:00,
2013-03-07 22:25:00,28.0,26.5,29.71,NE,45,0.0,7.0,94,0.00,,,0.12,Weather View 32 v70,2013-03-08 03:25:00,
2013-03-07 22:30:00,28.0,26.5,29.71,NE,45,0.0,7.0,94,0.00,,,0.12,Weather View 32 v70,2013-03-08 03:30:00,
2013-03-07 22:39:00,28.0,26.5,29.71,NE,45,1.0,7.0,94,0.00,,,0.12,Weather View 32 v70,2013-03-08 03:39:00,
2013-03-07 22:44:00,28.0,26.5,29.71,NE,45,1.0,7.0,94,0.00,,,0.12,Weather View 32 v70,2013-03-08 03:44:00,
2013-03-07 22:49:00,28.0,26.5,29.71,NE,45,1.0,7.0,94,0.00,,,0.12,Weather View 32 v70,2013-03-08 03:49:00,
2013-03-07 22:54:00,28.0,26.5,29.71,NE,45,1.0,7.0,94,0.00,,,0.12,Weather View 32 v70,2013-03-08 03:54:00,
2013-03-07 22:59:00,28.0,26.5,29.71,NE,45,1.0,7.0,94,0.00,,,0.12,Weather View 32 v70,2013-03-08 03:59:00,
2013-03-07 23:04:00,28.0,26.5,29.71,NE,45,1.0,7.0,94,0.00,,,0.12,Weather View 32 v70,2013-03-08 04:04:00,
2013-03-07 23:10:00,28.0,26.5,29.71,NE,45,0.0,7.0,94,0.00,,,0.12,Weather View 32 v70,2013-03-08 04:10:00,
2013-03-07 23:15:00,28.0,26.5,29.71,NE,45,1.0,7.0,94,0.00,,,0.12,Weather View 32 v70,2013-03-08 04:15:00,
2013-03-07 23:20:00,28.0,26.5,29.71,NE,45,1.0,7.0,94,0.00,,,0.12,Weather View 32 v70,2013-03-08 04:20:00,
2013-03-07 23:25:00,28.0,26.5,29.71,NE,45,6.0,7.0,94,0.00,,,0.12,Weather View 32 v70,2013-03-08 04:25:00,
2013-03-07 23:30:00,28.0,26.5,29.71,NE,45,2.0,7.0,94,0.00,,,0.12,Weather View 32 v70,2013-03-08 04:30:00,
2013-03-07 23:35:00,28.0,26.5,29.71,NE,45,1.0,7.0,94,0.00,,,0.12,Weather View 32 v70,2013-03-08 04:35:00,
2013-03-07 23:40:00,28.0,26.5,29.70,NE,45,1.0,7.0,94,0.00,,,0.12,Weather View 32 v70,2013-03-08 04:40:00,
2013-03-07 23:49:00,28.0,26.5,29.70,NE,45,0.0,7.0,94,0.00,,,0.12,Weather View 32 v70,2013-03-08 04:49:00,
2013-03-07 23:55:00,28.0,26.5,29.70,NE,45,1.0,7.0,94,0.00,,,0.12,Weather View 32 v70,2013-03-08 04:55:00,